This is the latest recevied weather packets stored in our database for station/object WA6OOO. If no packets are shown the sender has not sent any weather packets the latest 10 day(s).
| Time | Temp. | Humidity | Pressure | Rain* | Wind** | Luminosity | Snow |
|---|---|---|---|---|---|---|---|
| 1787879710 | 28.33° C | 68% | 1012.8 hPa | 0 mm | - | 67 W/m² | - |
| 1787879405 | 28.33° C | 69% | 1012.8 hPa | 0 mm | - | 79 W/m² | - |
| 1787879101 | 28.33° C | 69% | 1012.8 hPa | 0 mm | - | 87 W/m² | - |
| 1787878796 | 27.78° C | 70% | 1012.8 hPa | 0 mm | - | 67 W/m² | - |
| 1787878495 | 27.78° C | 70% | 1012.6 hPa | 0 mm | - | 48 W/m² | - |
| 1787878192 | 27.78° C | 70% | 1012.5 hPa | 0 mm | - | 42 W/m² | - |
| 1787877887 | 27.78° C | 70% | 1012.7 hPa | 0 mm | - | 43 W/m² | - |
| 1787877582 | 27.78° C | 70% | 1012.8 hPa | 0 mm | - | 47 W/m² | - |
| 1787877278 | 27.78° C | 70% | 1013 hPa | 0 mm | - | 51 W/m² | - |
| 1787876977 | 27.78° C | 70% | 1013.1 hPa | 0 mm | - | 54 W/m² | - |
| 1787876673 | 27.78° C | 70% | 1013 hPa | 0 mm | - | 62 W/m² | - |
| 1787876368 | 28.33° C | 69% | 1013.1 hPa | 0 mm | - | 82 W/m² | - |
| 1787876067 | 28.89° C | 67% | 1013 hPa | 0 mm | - | 104 W/m² | - |
| 1787875762 | 28.89° C | 67% | 1013.1 hPa | 0 mm | - | 124 W/m² | - |
| 1787875461 | 28.89° C | 66% | 1013.3 hPa | 0 mm | - | 138 W/m² | - |
| 1787875160 | 29.44° C | 65% | 1013.3 hPa | 0 mm | - | 161 W/m² | - |
| 1787874855 | 28.89° C | 66% | 1013.1 hPa | 0 mm | - | 210 W/m² | - |
| 1787874554 | 28.33° C | 68% | 1013.2 hPa | 0 mm | - | 228 W/m² | - |
| 1787874248 | 27.78° C | 71% | 1013.1 hPa | 0 mm | - | 211 W/m² | - |
| 1787873949 | 27.22° C | 72% | 1013.4 hPa | 0 mm | - | 156 W/m² | - |
| 1787873643 | 27.22° C | 71% | 1013.5 hPa | 0 mm | - | 132 W/m² | - |
| 1787873338 | 27.78° C | 69% | 1013.4 hPa | 0 mm | - | 111 W/m² | - |
| 1787873036 | 27.78° C | 69% | 1013.5 hPa | 0 mm | - | 118 W/m² | - |
| 1787872732 | 27.78° C | 68% | 1013.3 hPa | 0 mm | - | 111 W/m² | - |
| 1787872429 | 27.78° C | 68% | 1013.5 hPa | 0 mm | - | 116 W/m² | - |
* Rain latest hour (hover to see other rain measurements)
** Current wind speed in m/s (hover to see current wind gust speed)